DAL29 KLGA-KDCA

Flight info

Callsign DAL29
Flight time 0h 39m
Altitude 22000
Route BIGGY Q75 MXE CLIPR3
Aircraft B737/M-SDE2E3FGHIRWXY/LB1

Departure

Time 2026-05-06 02:10
Airport LaGuardia Airport (KLGA)

Arrival

Time 2026-05-06 02:49
Airport Ronald Reagan Washington National Airport (KDCA)
Time Latitude Longitude Altitude Speed Heading
2026-05-06 01:50 40.77619 -73.87101 15 ft 0 kts 301°
2026-05-06 02:00 40.77613 -73.87088 16 ft 3 kts 301°
2026-05-06 02:00 40.77602 -73.87066 14 ft 3 kts 301°
2026-05-06 02:01 40.77592 -73.87044 14 ft 3 kts 302°
2026-05-06 02:01 40.77578 -73.87032 15 ft 2 kts 26°
2026-05-06 02:01 40.77576 -73.87033 15 ft 0 kts 26°
2026-05-06 02:02 40.77578 -73.87032 15 ft 0 kts 26°
2026-05-06 02:02 40.77580 -73.87030 15 ft 1 kts 26°
2026-05-06 02:03 40.77584 -73.87028 15 ft 0 kts 26°
2026-05-06 02:03 40.77587 -73.87026 16 ft 1 kts 26°
2026-05-06 02:03 40.77590 -73.87024 15 ft 0 kts 26°
2026-05-06 02:03 40.77593 -73.87022 13 ft 0 kts 26°
2026-05-06 02:04 40.77595 -73.87020 13 ft 0 kts 26°
2026-05-06 02:04 40.77598 -73.87019 13 ft 0 kts 26°
2026-05-06 02:04 40.77602 -73.87016 14 ft 2 kts 28°
2026-05-06 02:04 40.77609 -73.87011 13 ft 2 kts 28°
2026-05-06 02:05 40.77612 -73.87009 14 ft 0 kts 28°
2026-05-06 02:05 40.77616 -73.87008 13 ft 2 kts 10°
2026-05-06 02:05 40.77634 -73.87012 13 ft 4 kts 352°
2026-05-06 02:05 40.77666 -73.86997 12 ft 6 kts 30°
2026-05-06 02:06 40.77681 -73.86986 12 ft 4 kts 28°
2026-05-06 02:06 40.77711 -73.87002 13 ft 5 kts 302°
2026-05-06 02:06 40.77732 -73.87048 15 ft 6 kts 301°
2026-05-06 02:06 40.77765 -73.87114 17 ft 11 kts 303°
2026-05-06 02:07 40.77775 -73.87136 16 ft 1 kts 302°
2026-05-06 02:07 40.77779 -73.87145 16 ft 1 kts 301°
2026-05-06 02:07 40.77791 -73.87170 15 ft 7 kts 303°
2026-05-06 02:07 40.77838 -73.87266 16 ft 17 kts 302°
2026-05-06 02:08 40.77880 -73.87359 17 ft 4 kts 300°
2026-05-06 02:08 40.77911 -73.87423 16 ft 0 kts 303°
2026-05-06 02:08 40.77918 -73.87436 16 ft 4 kts 304°
2026-05-06 02:08 40.77965 -73.87535 14 ft 21 kts 303°
2026-05-06 02:09 40.78030 -73.87672 15 ft 19 kts 303°
2026-05-06 02:09 40.78090 -73.87799 15 ft 13 kts 302°
2026-05-06 02:09 40.78146 -73.87858 28 ft 0 kts 345°
2026-05-06 02:09 40.78175 -73.87861 18 ft 12 kts
2026-05-06 02:10 40.78183 -73.87742 15 ft 26 kts 126°
2026-05-06 02:10 40.77903 -73.87178 15 ft 120 kts 124°
2026-05-06 02:10 40.77302 -73.86036 297 ft 174 kts 126°
2026-05-06 02:10 40.76667 -73.84710 1507 ft 169 kts 140°
2026-05-06 02:11 40.75900 -73.83664 2627 ft 150 kts 174°
2026-05-06 02:11 40.74808 -73.83387 3201 ft 181 kts 182°
2026-05-06 02:11 40.73462 -73.83071 3813 ft 209 kts 179°
2026-05-06 02:11 40.72015 -73.83098 4775 ft 208 kts 203°
2026-05-06 02:12 40.70671 -73.83807 5831 ft 209 kts 214°
2026-05-06 02:12 40.69607 -73.85097 6862 ft 210 kts 231°
2026-05-06 02:12 40.68636 -73.86578 7806 ft 217 kts 231°
2026-05-06 02:12 40.67840 -73.88267 8670 ft 224 kts 252°
2026-05-06 02:13 40.67695 -73.90360 9475 ft 239 kts 275°
2026-05-06 02:13 40.68253 -73.92490 10228 ft 253 kts 294°
2026-05-06 02:13 40.69136 -73.94503 11074 ft 259 kts 297°
2026-05-06 02:13 40.70087 -73.96561 11847 ft 270 kts 297°
2026-05-06 02:14 40.71274 -73.98712 11954 ft 314 kts 308°
2026-05-06 02:14 40.72891 -74.00870 12301 ft 346 kts 312°
2026-05-06 02:14 40.74756 -74.03070 12828 ft 368 kts 315°
2026-05-06 02:14 40.76724 -74.05249 13734 ft 377 kts 316°
2026-05-06 02:15 40.78671 -74.07563 14637 ft 375 kts 305°
2026-05-06 02:15 40.79853 -74.10557 15650 ft 364 kts 280°
2026-05-06 02:15 40.80027 -74.13845 16644 ft 359 kts 263°
2026-05-06 02:15 40.79539 -74.17075 17506 ft 360 kts 249°
2026-05-06 02:16 40.78434 -74.20018 18297 ft 363 kts 239°
2026-05-06 02:16 40.77113 -74.22889 19038 ft 363 kts 238°
2026-05-06 02:16 40.75758 -74.25729 19544 ft 367 kts 237°
2026-05-06 02:16 40.74380 -74.28606 19973 ft 372 kts 238°
2026-05-06 02:17 40.73015 -74.31470 20463 ft 375 kts 238°
2026-05-06 02:17 40.71633 -74.34393 20999 ft 376 kts 238°
2026-05-06 02:17 40.70254 -74.37325 21611 ft 374 kts 238°
2026-05-06 02:17 40.68875 -74.40265 21888 ft 382 kts 238°
2026-05-06 02:18 40.67457 -74.43295 21905 ft 394 kts 238°
2026-05-06 02:18 40.66000 -74.46407 21907 ft 404 kts 238°
2026-05-06 02:18 40.64501 -74.49608 21901 ft 414 kts 238°
2026-05-06 02:18 40.62986 -74.52842 21903 ft 423 kts 238°
2026-05-06 02:19 40.61427 -74.56167 21911 ft 430 kts 238°
2026-05-06 02:19 40.59875 -74.59475 21882 ft 411 kts 238°
2026-05-06 02:19 40.58413 -74.62588 21879 ft 388 kts 238°
2026-05-06 02:19 40.57045 -74.65497 21885 ft 369 kts 238°
2026-05-06 02:20 40.54338 -74.71241 21910 ft 371 kts 238°
2026-05-06 02:20 40.53434 -74.73157 21904 ft 374 kts 238°
2026-05-06 02:20 40.51602 -74.77036 21898 ft 377 kts 238°
2026-05-06 02:21 40.50217 -74.79966 21884 ft 377 kts 238°
2026-05-06 02:21 40.49299 -74.81906 21892 ft 376 kts 238°
2026-05-06 02:21 40.47917 -74.84827 21884 ft 375 kts 238°
2026-05-06 02:21 40.46541 -74.87731 21900 ft 373 kts 238°
2026-05-06 02:22 40.44727 -74.91558 21909 ft 372 kts 238°
2026-05-06 02:22 40.43360 -74.94435 21903 ft 371 kts 238°
2026-05-06 02:22 40.42428 -74.96371 21924 ft 370 kts 236°
2026-05-06 02:22 40.40862 -74.99009 21905 ft 370 kts 228°
2026-05-06 02:23 40.39092 -75.01478 21911 ft 370 kts 227°
2026-05-06 02:23 40.37315 -75.03940 21911 ft 370 kts 227°
2026-05-06 02:23 40.34987 -75.07172 21920 ft 371 kts 227°
2026-05-06 02:23 40.27990 -75.16939 21927 ft 373 kts 228°
2026-05-06 02:24 40.20882 -75.26869 21942 ft 374 kts 228°
2026-05-06 02:24 40.13747 -75.36799 21928 ft 374 kts 228°
2026-05-06 02:24 40.06580 -75.46724 21943 ft 375 kts 228°
2026-05-06 02:24 39.99407 -75.56626 21923 ft 375 kts 228°
2026-05-06 02:25 39.92219 -75.66522 21935 ft 375 kts 228°
2026-05-06 02:25 39.86210 -75.77368 21863 ft 371 kts 238°
2026-05-06 02:25 39.80681 -75.88459 20852 ft 355 kts 237°
2026-05-06 02:25 39.77351 -75.94796 20204 ft 343 kts 236°
2026-05-06 02:26 39.76013 -75.97338 19957 ft 338 kts 236°
2026-05-06 02:26 39.74695 -75.99847 19719 ft 334 kts 236°
2026-05-06 02:26 39.73387 -76.02338 19477 ft 333 kts 236°
2026-05-06 02:26 39.72096 -76.04796 19245 ft 332 kts 236°
2026-05-06 02:27 39.70791 -76.07279 19013 ft 331 kts 236°
2026-05-06 02:27 39.69489 -76.09751 18776 ft 330 kts 236°
2026-05-06 02:27 39.68194 -76.12212 18498 ft 330 kts 236°
2026-05-06 02:27 39.66896 -76.14672 18115 ft 327 kts 236°
2026-05-06 02:28 39.65631 -76.17070 17637 ft 324 kts 236°
2026-05-06 02:28 39.64358 -76.19482 17167 ft 321 kts 236°
2026-05-06 02:28 39.63102 -76.21861 16738 ft 317 kts 236°
2026-05-06 02:28 39.61870 -76.24192 16302 ft 315 kts 236°
2026-05-06 02:29 39.60635 -76.26525 15887 ft 312 kts 236°
2026-05-06 02:29 39.59403 -76.28846 15446 ft 310 kts 234°
2026-05-06 02:29 39.57920 -76.30871 15009 ft 311 kts 219°
2026-05-06 02:29 39.56134 -76.32433 14821 ft 304 kts 216°
2026-05-06 02:30 39.54394 -76.33901 14818 ft 306 kts 216°
2026-05-06 02:30 39.52569 -76.35466 14829 ft 320 kts 216°
2026-05-06 02:30 39.50702 -76.37081 14805 ft 323 kts 216°
2026-05-06 02:30 39.48840 -76.38693 14801 ft 321 kts 216°
2026-05-06 02:31 39.47000 -76.40284 14787 ft 320 kts 216°
2026-05-06 02:31 39.45146 -76.41886 14766 ft 319 kts 216°
2026-05-06 02:31 39.43311 -76.43472 14664 ft 315 kts 216°
2026-05-06 02:31 39.41490 -76.45046 14298 ft 314 kts 216°
2026-05-06 02:32 39.39672 -76.46624 13785 ft 315 kts 217°
2026-05-06 02:32 39.37930 -76.48316 13551 ft 309 kts 220°
2026-05-06 02:32 39.36287 -76.50011 13310 ft 296 kts 221°
2026-05-06 02:32 39.34732 -76.51632 13046 ft 283 kts 221°
2026-05-06 02:33 39.33224 -76.53197 12783 ft 274 kts 220°
2026-05-06 02:33 39.32237 -76.54218 12608 ft 270 kts 220°
2026-05-06 02:34 39.27405 -76.59171 12021 ft 264 kts 220°
2026-05-06 02:34 39.25975 -76.60627 12009 ft 264 kts 220°
2026-05-06 02:34 39.24532 -76.62094 11999 ft 264 kts 220°
2026-05-06 02:34 39.23081 -76.63567 12001 ft 265 kts 220°
2026-05-06 02:35 39.21631 -76.65038 11994 ft 264 kts 220°
2026-05-06 02:35 39.20186 -76.66502 12004 ft 264 kts 220°
2026-05-06 02:35 39.18735 -76.67971 12007 ft 264 kts 220°
2026-05-06 02:35 39.17310 -76.69413 12004 ft 264 kts 220°
2026-05-06 02:36 39.15868 -76.70871 11963 ft 265 kts 220°
2026-05-06 02:36 39.14399 -76.72357 11695 ft 270 kts 220°
2026-05-06 02:36 39.12916 -76.73854 11486 ft 270 kts 220°
2026-05-06 02:36 39.11438 -76.75346 11232 ft 266 kts 220°
2026-05-06 02:37 39.09984 -76.76811 10993 ft 263 kts 220°
2026-05-06 02:37 39.08578 -76.78227 10769 ft 253 kts 220°
2026-05-06 02:37 39.07233 -76.79581 10511 ft 237 kts 220°
2026-05-06 02:37 39.05979 -76.80844 10255 ft 225 kts 220°
2026-05-06 02:38 39.04765 -76.82066 10013 ft 217 kts 221°
2026-05-06 02:38 39.03585 -76.83255 9778 ft 213 kts 221°
2026-05-06 02:38 39.02425 -76.84424 9507 ft 211 kts 220°
2026-05-06 02:38 39.01289 -76.85566 9256 ft 209 kts 220°
2026-05-06 02:39 39.00139 -76.86722 9003 ft 208 kts 220°
2026-05-06 02:39 38.98998 -76.87867 8732 ft 207 kts 220°
2026-05-06 02:39 38.97912 -76.89074 8460 ft 205 kts 233°
2026-05-06 02:39 38.97342 -76.90720 8231 ft 205 kts 254°
2026-05-06 02:40 38.97257 -76.92558 7977 ft 208 kts 269°
2026-05-06 02:40 38.97338 -76.94414 7736 ft 207 kts 268°
2026-05-06 02:40 38.97407 -76.96261 7488 ft 207 kts 267°
2026-05-06 02:40 38.97473 -76.98109 7241 ft 207 kts 267°
2026-05-06 02:41 38.97537 -76.99964 6997 ft 206 kts 267°
2026-05-06 02:41 38.97636 -77.01790 6755 ft 209 kts 275°
2026-05-06 02:41 38.98296 -77.03502 6516 ft 220 kts 299°
2026-05-06 02:41 38.99379 -77.04943 6276 ft 225 kts 308°
2026-05-06 02:42 39.00530 -77.06302 6023 ft 225 kts 308°
2026-05-06 02:42 39.01669 -77.07650 5780 ft 224 kts 308°
2026-05-06 02:42 39.02814 -77.09017 5527 ft 224 kts 307°
2026-05-06 02:42 39.03954 -77.10394 5280 ft 223 kts 305°
2026-05-06 02:43 39.04715 -77.12020 5005 ft 203 kts 274°
2026-05-06 02:43 39.04590 -77.13720 4774 ft 188 kts 244°
2026-05-06 02:43 39.04039 -77.15212 4527 ft 186 kts 240°
2026-05-06 02:43 39.03453 -77.16696 4277 ft 185 kts 240°
2026-05-06 02:44 39.02857 -77.18174 4028 ft 185 kts 239°
2026-05-06 02:44 39.02119 -77.19497 3752 ft 182 kts 217°
2026-05-06 02:44 39.00925 -77.19956 3528 ft 190 kts 183°
2026-05-06 02:44 38.99674 -77.19284 3299 ft 206 kts 149°
2026-05-06 02:45 38.98697 -77.17948 3077 ft 204 kts 135°
2026-05-06 02:45 38.97961 -77.16453 2997 ft 189 kts 134°
2026-05-06 02:45 38.97260 -77.15033 3027 ft 187 kts 134°
2026-05-06 02:45 38.96521 -77.13695 3011 ft 183 kts 144°
2026-05-06 02:46 38.95598 -77.12619 3005 ft 175 kts 155°
2026-05-06 02:46 38.94625 -77.11775 2944 ft 161 kts 159°
2026-05-06 02:46 38.93672 -77.11092 2543 ft 149 kts 167°
2026-05-06 02:46 38.92736 -77.10604 2203 ft 141 kts 167°
2026-05-06 02:47 38.91868 -77.10106 1905 ft 135 kts 166°
2026-05-06 02:47 38.91040 -77.09509 1656 ft 146 kts 151°
2026-05-06 02:47 38.90371 -77.08482 1439 ft 154 kts 131°
2026-05-06 02:47 38.89924 -77.07222 1148 ft 158 kts 122°
2026-05-06 02:48 38.89415 -77.05955 846 ft 158 kts 131°
2026-05-06 02:48 38.88708 -77.04947 663 ft 149 kts 142°
2026-05-06 02:48 38.87872 -77.04215 417 ft 142 kts 160°
2026-05-06 02:48 38.86942 -77.03924 199 ft 136 kts 181°
2026-05-06 02:49 38.85965 -77.03853 40 ft 143 kts 178°
2026-05-06 02:49 38.85077 -77.03767 25 ft 73 kts 176°
2026-05-06 02:49 38.84616 -77.03723 24 ft 61 kts 174°
2026-05-06 02:49 38.84397 -77.03767 25 ft 4 kts 250°
2026-05-06 02:50 38.84397 -77.03768 25 ft 0 kts 251°
2026-05-06 02:51 38.84388 -77.03810 27 ft 9 kts 257°
2026-05-06 02:51 38.84370 -77.03900 27 ft 0 kts 253°
2026-05-06 02:52 38.84371 -77.03933 27 ft 7 kts 285°
2026-05-06 02:52 38.84374 -77.03952 27 ft 0 kts 282°
2026-05-06 02:52 38.84377 -77.04012 26 ft 17 kts 272°
2026-05-06 02:52 38.84392 -77.04111 30 ft 16 kts 315°
2026-05-06 02:53 38.84452 -77.04126 27 ft 14 kts 353°
2026-05-06 02:53 38.84500 -77.04134 27 ft 2 kts 352°
2026-05-06 02:53 38.84506 -77.04135 27 ft 0 kts 352°
2026-05-06 02:53 38.84510 -77.04135 27 ft 0 kts 352°
2026-05-06 02:54 38.84519 -77.04137 27 ft 8 kts 352°
2026-05-06 02:54 38.84577 -77.04226 27 ft 15 kts 269°
2026-05-06 02:54 38.84611 -77.04274 24 ft 11 kts 359°
2026-05-06 02:55 38.84634 -77.04271 27 ft 0 kts 359°